Regional Weather Roundup
Issued by NWS Cleveland, OH

Home | Current Version | Previous Version | Text Only | Print | Product List | Glossary Off
Versions: 1 2 3 4 5 6 7 8 9 10 11 12 13 14 15 16 17 18 19 20 21 22 23 24 25 26 27 28 29 30 31 32 33 34 35 36 37 38 39 40 41 42 43 44 45 46 47 48 49 50

758
ASUS41 KCLE 290300
RWRCLE
OHIO REGIONAL WEATHER ROUNDUP
NATIONAL WEATHER SERVICE WILMINGTON, OH
1100 PM EDT FRI APR 28 2017

NOTE: "FAIR" INDICATES FEW OR NO CLOUDS BELOW 12,000 FEET WITH NO
SIGNIFICANT WEATHER AND/OR OBSTRUCTIONS TO VISIBILITY.

OHZ001>008-015>018-024>027-034-035-043-044-290400-
   NORTHWEST OHIO

CITY           SKY/WX    TMP DP  RH WIND       PRES   REMARKS
DEFIANCE       LGT RAIN  52  49  89 E6        29.95F
FINDLAY        LGT RAIN  56  52  86 SE6       29.94S
TOLEDO EXPRESS CLOUDY    53  52  96 CALM      29.96R
TOLEDO EXEC    LGT RAIN  55  53  93 NE5       29.96R
LIMA           CLOUDY    56  54  93 E7        29.93S
$$

OHZ009>014-019>023-028>033-038-089-290400-
   NORTHEAST OHIO

CITY           SKY/WX    TMP DP  RH WIND       PRES   REMARKS
CLE-HOPKINS    LGT RAIN  58  50  75 SE13      29.98F
CLE-LAKEFRONT  LGT RAIN  58  52  80 SE8       29.96F
CUY CO. ARPT   LGT RAIN  57  52  82 SE13      30.00R
LORAIN-ELYRIA  LGT RAIN  56  49  77 S10       29.98R
ASHTABULA      LGT RAIN  58  51  78 CALM      30.02R
AKRON-CANTON   TSTM      57  51  80 SE8       30.06R
WOOSTER        NOT AVBL
MANSFIELD      TSTM      55  53  93 SE15      29.98F FOG
YOUNGSTOWN     RAIN      56  51  84 SE8       30.06R
$$

OHZ042-051>053-060>062-070>072-077>081-290400-
  SOUTHWEST OHIO

CITY           SKY/WX    TMP DP  RH WIND       PRES   REMARKS
CINC-COVINGTON CLOUDY    63  63 100 CALM      29.94R
CINC-LUNKEN    TSTM      62  62 100 N6        29.95S
HAMILTON       CLOUDY    61  60  97 E3        29.94S
DAYTON         CLOUDY    57  55  93 E17       29.93S
WRIGHT-PAT AFB TSTM      57  57 100 E13       29.95S
DAYTON GENERAL CLOUDY    58  56  93 E6        29.94R
WILMINGTON     TSTM      58  57  97 E16G23    29.96F
$$

OHZ036-037-039>041-045>050-054>059-063>069-073>076-082>088-290400-
  CENTRAL AND SOUTHEAST OHIO

CITY           SKY/WX    TMP DP  RH WIND       PRES   REMARKS
COLUMBUS       LGT RAIN  57  56  96 E14G21    29.96F
OSU AIRPORT    LGT RAIN  58  56  93 N8        30.01R
BOLTON FIELD   NOT AVBL
RICKENBACK AFB NOT AVBL
NEWARK         LGT RAIN  58  54  86 N9        30.02R
MARION         LGT RAIN  56  53  90 SE20      29.93F
LANCASTER      TSTM      59  55  87 E17G30    29.98R FOG
ZANESVILLE     TSTM      59  52  77 E10       29.99R
NEW PHILLY     LGT RAIN  58  53  84 NE8       30.01F
$$




USA.gov is the U.S. government's official web portal to all federal, state and local government web resources and services.